This demonstration page uses our WeatherBlox Daily Observations layout. Learn more.

Left ArrowRight Arrow

38.88101, -77.10428

Hourly Observations for November 28, 2018

Temp ( °F °C ) Dew Point ( °F °C ) Humidity (%) Winds ( mph kmh ) Pressure ( in mb ) Visibility ( mi km ) Precip ( " mm )
12:52 am 00:52 Cloudy 37 2.8 18 -7.8 46 46 WNW 15 24 29.69 1005 10 16.0934 0 0
1:52 am 01:52 Cloudy 37 2.8 18 -7.8 46 46 NW 20 31 29.69 1006 10 16.0934 0 0
2:52 am 02:52 Cloudy 36 2.2 17 -8.3 46 46 WNW 17 28 29.7 1006 10 16.0934 0 0
3:52 am 03:52 Cloudy 36 2.2 16 -8.9 44 44 NW 15 24 29.71 1006 10 16.0934 0 0
4:52 am 04:52 Cloudy 36 2.2 16 -8.9 44 44 NW 15 24 29.72 1007 10 16.0934 0 0
5:52 am 05:52 Cloudy 35 1.7 15 -9.4 44 44 WNW 15 24 29.75 1008 10 16.0934 0 0
6:52 am 06:52 Mostly Cloudy 35 1.7 15 -9.4 44 44 WNW 17 28 29.76 1008 10 16.0934 0 0
7:52 am 07:52 Mostly Cloudy 35 1.7 15 -9.4 44 44 NW 25 41 29.79 1009 10 16.0934 0 0
8:52 am 08:52 Mostly Cloudy 35 1.7 15 -9.4 44 44 WNW 24 39 29.81 1010 10 16.0934 0 0
9:52 am 09:52 Partly Cloudy 37 2.8 15 -9.4 41 41 NW 20 31 29.83 1010 10 16.0934 0 0
10:52 am 10:52 Partly Cloudy 37 2.8 15 -9.4 41 41 NW 23 37 29.83 1010 10 16.0934 0 0
11:52 am 11:52 Partly Cloudy 38 3.3 15 -9.4 39 39 WNW 18 30 29.82 1010 10 16.0934 0 0
12:52 pm 12:52 Partly Cloudy 39 3.9 15 -9.4 38 38 WNW 23 37 29.81 1010 10 16.0934 0 0
1:52 pm 13:52 Partly Cloudy 40 4.4 16 -8.9 38 38 WNW 20 31 29.83 1010 10 16.0934 0 0
2:52 pm 14:52 Partly Cloudy 39 3.9 16 -8.9 39 39 WNW 20 31 29.86 1011 10 16.0934 0 0
3:52 pm 15:52 Mostly Sunny 37 2.8 16 -8.9 42 42 WNW 14 22 29.88 1012 10 16.0934 0 0
4:52 pm 16:52 Partly Cloudy 36 2.2 16 -8.9 44 44 NW 14 22 29.9 1012 10 16.0934 0 0
5:52 pm 17:52 Mostly Clear 35 1.7 16 -8.9 46 46 WNW 18 30 29.94 1014 10 16.0934 0 0
6:52 pm 18:52 Partly Cloudy 34 1.1 16 -8.9 48 48 WNW 12 19 29.96 1015 10 16.0934 0 0
7:52 pm 19:52 Mostly Clear 33 0.6 16 -8.9 49 49 WNW 12 19 29.98 1015 10 16.0934 0 0
8:52 pm 20:52 Mostly Clear 33 0.6 16 -8.9 49 49 WNW 17 28 29.99 1016 10 16.0934 0 0
9:52 pm 21:52 Mostly Clear 32 0 16 -8.9 52 52 WNW 10 17 29.99 1016 10 16.0934 0 0
10:52 pm 22:52 Mostly Clear 32 0 16 -8.9 52 52 NW 12 19 30 1016 10 16.0934 0 0
11:52 pm 23:52 Clear 32 0 17 -8.3 54 54 WNW 10 17 30 1016 10 16.0934 0 0

Powered by AerisWeather